FALCON 9 DEB (54108 NORAD) Tracking and Keplerian Element Data

This shows tracking and keplerian element data for the satellite.

Feedback or suggestion? Click here.




ElementValue
Catalog54108
NameFALCON 9 DEB
Epoch Orbit229
Epoch Day307.7724751
Epoch Year2022
RAAN75.1958
Inclination53.213
Eccentricity0.0015722
Argument of Perigee77.9303
Mean Anonmoly282.3505
Mean Motion16.36935587
Decay Rate0.06881026
L11 54108U 22136BK 22307.77247510 .06881026 12308-4 68040-3 0 9999
L22 54108 53.2130 75.1958 0015722 77.9303 282.3505 16.36935587 2296



Live tracking and technical data element details for FALCON 9 DEB (NORAD 54108). FALCON 9 DEB can be tracked NOW for your location showing map with azimuth and elevation plus other details from your city location.







IsCatalogInMostPopularTable: catalog: 54108, numindb: 2
Update: records affected: 1



GetName: 54108 FALCON 9 DEB

Hit Count: updated at: Sun, 28 May 2023 20:09:03 GMT